Flag for Germany Weather past 2 weeks in Freising, Bavaria, Germany

Now
40 °F

Overcast.


Feels Like: 40 °F
Forecast: 30 / 49 °F
Wind: 1 mph from North

Location: Muenchen Flughafen

Current Time: Mar 6, 2015 at 6:40:06 PM

Latest Report: Mar 6, 2015 at 6:00 PM


Visibility: 38 mi

Pressure: 30.62 "Hg

Humidity: 70%

Dew point: 31 °F

Location of FreisingLocation

Historic Weather in Freising — Graph

°F

Freising temperature yesterday

Maximum temperature yesterday: 41 °F (at 4:00 PM)
Minimum temperature yesterday: 32 °F (at 12:00 AM)
Average temperature yesterday: 36 °F

Past Weeks' High & Low Weather Summary

 TemperatureHumidityPressure
High47 °F (Feb 20, 4:00 PM)100% (Feb 19, 10:00 PM)30.69 "Hg (Feb 19, 10:00 PM)
Low16 °F (Feb 20, 6:00 AM)44% (Feb 27, 3:00 PM)29.50 "Hg (Feb 21, 2:00 PM)
Average36 °F82%30.06 "Hg
* Reported Feb 19 5:00 PM — Mar 6 5:00 PM, Freising, Weather by CustomWeather, © 2015

Note: Actual official high and low records may vary slightly from our data, if they occured in-between our weather recording intervals... More about our weather records

Advertising

Freising weather history for previous 24 hours

 ConditionsComfort  
Time TempWeatherWind HumidityBarometerVisibility
5:00 PM
Fri, Mar 6
41 °FOvercast.2 mph66%30.61 "Hg34 mi
4:00 PM42 °FOvercast.1 mph53%30.62 "Hg31 mi
3:00 PM43 °FOvercast.3 mph52%30.62 "Hg28 mi
2:00 PM43 °FPartly sunny.3 mph54%30.63 "Hg25 mi
1:00 PM41 °FOvercast.5 mph62%30.66 "Hg22 mi
12:00 PM41 °FOvercast.5 mph66%30.67 "Hg22 mi
11:00 AM40 °FOvercast.3 mph70%30.68 "Hg17 mi
10:00 AM37 °FOvercast.2 mph73%30.69 "Hg16 mi
9:00 AM35 °FOvercast.3 mph79%30.68 "Hg16 mi
8:00 AM32 °FScattered clouds.3 mph84%30.68 "Hg16 mi
7:00 AM30 °FPassing clouds.3 mph86%30.67 "Hg16 mi
6:00 AM32 °FPassing clouds.1 mph82%30.66 "Hg22 mi
5:00 AM32 °FOvercast.3 mph83%30.66 "Hg25 mi
4:00 AM32 °FOvercast.2 mph82%30.66 "Hg28 mi
3:00 AM32 °FOvercast.2 mph83%30.65 "Hg28 mi
2:00 AM33 °FOvercast.3 mph81%30.65 "Hg28 mi
1:00 AM33 °FOvercast.2 mph80%30.65 "Hg28 mi
12:00 AM33 °FOvercast.1 mph80%30.65 "Hg31 mi
10:00 PM
Thu, Mar 5
36 °FOvercast.3 mph64%30.64 "Hg31 mi
9:00 PM36 °FOvercast.3 mph60%30.62 "Hg31 mi
8:00 PM36 °FOvercast.2 mph59%30.61 "Hg31 mi
7:00 PM38 °FPassing clouds.3 mph53%30.59 "Hg31 mi
6:00 PM38 °FPartly sunny.3 mph53%30.57 "Hg28 mi
Weather by CustomWeather, © 2015

See weather overviewHow to use our weather pages